Location: Jackson
(42.2460°N, 84.4010°W)
Time: 11:23:51
(UTC-04:00)

Injun/Solrad 3 - Pass Details

Date: 09 February 2026
Orbit: 871 x 985 km, 66.8° (Epoch: 16 March)

Event Time Altitude Azimuth Distance (km) Brightness Sun altitude
Rises 22:05:44 0° 332° (NNW) 3,561 11.5 -44.7°
Reaches altitude 10° 22:08:17 10° 336° (NNW) 2,632 10.6 -45.2°
Enters shadow 22:08:31 11° 337° (NNW) 2,551 10.5 -45.2°
